TimeCST,TemperatureF,Dew PointF,Humidity,Sea Level PressureIn,VisibilityMPH,Wind Direction,Wind SpeedMPH,Gust SpeedMPH,PrecipitationIn,Events,Conditions,WindDirDegrees,DateUTC
12:53 AM,42.1,30.9,65,30.55,10.0,NNE,19.6,25.3,N/A,,Clear,20,2013-11-13 06:53:00
1:53 AM,39.9,28.9,65,30.56,10.0,NNE,13.8,-,N/A,,Clear,20,2013-11-13 07:53:00
2:53 AM,37.9,28.9,70,30.56,10.0,NNE,10.4,-,N/A,,Clear,20,2013-11-13 08:53:00
3:53 AM,37.0,28.0,70,30.56,10.0,NNE,15.0,-,N/A,,Clear,20,2013-11-13 09:53:00
4:53 AM,35.1,28.0,76,30.57,10.0,NNE,11.5,-,N/A,,Clear,20,2013-11-13 10:53:00
5:53 AM,35.1,27.0,72,30.57,10.0,NNE,12.7,-,N/A,,Clear,20,2013-11-13 11:53:00
6:53 AM,34.0,27.0,75,30.58,10.0,NNE,11.5,-,N/A,,Clear,20,2013-11-13 12:53:00
7:53 AM,37.0,27.0,67,30.60,10.0,NNE,13.8,-,N/A,,Clear,30,2013-11-13 13:53:00
8:53 AM,41.0,26.1,55,30.59,10.0,NNE,13.8,20.7,N/A,,Clear,30,2013-11-13 14:53:00
9:53 AM,45.0,24.1,44,30.58,10.0,NE,13.8,-,N/A,,Clear,40,2013-11-13 15:53:00
10:53 AM,48.9,25.0,39,30.57,10.0,North,11.5,18.4,N/A,,Clear,10,2013-11-13 16:53:00
11:53 AM,52.0,25.0,35,30.53,10.0,North,13.8,20.7,N/A,,Clear,10,2013-11-13 17:53:00
12:53 PM,54.0,24.1,31,30.48,10.0,North,15.0,18.4,N/A,,Clear,10,2013-11-13 18:53:00
1:53 PM,55.9,23.0,28,30.46,10.0,NNE,10.4,19.6,N/A,,Clear,30,2013-11-13 19:53:00
2:53 PM,57.0,26.1,30,30.44,10.0,NNE,12.7,19.6,N/A,,Clear,30,2013-11-13 20:53:00
3:53 PM,55.9,24.1,29,30.44,10.0,North,12.7,-,N/A,,Clear,10,2013-11-13 21:53:00
4:53 PM,53.1,27.0,37,30.44,10.0,North,8.1,-,N/A,,Clear,360,2013-11-13 22:53:00
5:53 PM,48.9,30.0,48,30.44,10.0,North,9.2,-,N/A,,Clear,10,2013-11-13 23:53:00
6:53 PM,48.0,30.0,50,30.45,8.0,NNE,9.2,-,N/A,,Clear,20,2013-11-14 00:53:00
7:53 PM,46.0,30.9,56,30.45,10.0,NNE,8.1,-,N/A,,Clear,20,2013-11-14 01:53:00
8:53 PM,42.1,32.0,67,30.45,10.0,North,4.6,-,N/A,,Clear,10,2013-11-14 02:53:00
9:53 PM,41.0,32.0,70,30.43,10.0,North,4.6,-,N/A,,Clear,10,2013-11-14 03:53:00
10:53 PM,39.9,33.1,77,30.43,10.0,NNE,4.6,-,N/A,,Clear,30,2013-11-14 04:53:00
11:53 PM,41.0,33.1,73,30.42,10.0,NE,4.6,-,N/A,,Clear,40,2013-11-14 05:53:00